TimeEDT,TemperatureF,Dew PointF,Humidity,Sea Level PressureIn,VisibilityMPH,Wind Direction,Wind SpeedMPH,Gust SpeedMPH,PrecipitationIn,Events,Conditions,WindDirDegrees,DateUTC
12:11 AM,41.0,33.8,76,30.17,10.0,North,6.9,-,N/A,,Clear,350,2012-10-28 04:11:00
12:52 AM,41.0,33.8,76,30.16,10.0,North,6.9,-,N/A,,Mostly Cloudy,350,2012-10-28 04:52:00
1:12 AM,42.8,33.8,70,30.17,10.0,North,6.9,-,N/A,,Overcast,350,2012-10-28 05:12:00
1:32 AM,42.8,33.8,70,30.17,10.0,North,8.1,-,N/A,,Overcast,360,2012-10-28 05:32:00
1:52 AM,41.0,33.8,76,30.16,10.0,North,8.1,-,N/A,,Overcast,350,2012-10-28 05:52:00
2:14 AM,39.2,33.8,81,30.15,10.0,North,6.9,-,N/A,,Scattered Clouds,10,2012-10-28 06:14:00
2:34 AM,39.2,33.8,81,30.15,10.0,North,5.8,-,N/A,,Scattered Clouds,10,2012-10-28 06:34:00
2:54 AM,39.2,33.8,81,30.16,10.0,North,4.6,-,N/A,,Mostly Cloudy,360,2012-10-28 06:54:00
3:15 AM,41.0,33.8,76,30.16,10.0,North,5.8,-,N/A,,Overcast,360,2012-10-28 07:15:00
3:35 AM,42.8,33.8,70,30.16,10.0,North,5.8,-,N/A,,Overcast,360,2012-10-28 07:35:00
3:55 AM,42.8,33.8,70,30.15,10.0,North,8.1,-,N/A,,Overcast,360,2012-10-28 07:55:00
4:15 AM,42.8,33.8,70,30.15,10.0,North,10.4,-,N/A,,Overcast,360,2012-10-28 08:15:00
4:35 AM,42.8,33.8,70,30.15,10.0,North,6.9,-,N/A,,Overcast,10,2012-10-28 08:35:00
4:55 AM,42.8,33.8,70,30.15,10.0,North,6.9,-,N/A,,Overcast,10,2012-10-28 08:55:00
5:15 AM,42.8,33.8,70,30.15,10.0,North,9.2,-,N/A,,Overcast,360,2012-10-28 09:15:00
5:35 AM,42.8,33.8,70,30.15,10.0,North,8.1,-,N/A,,Overcast,360,2012-10-28 09:35:00
5:55 AM,42.8,32.0,66,30.14,10.0,North,10.4,-,N/A,,Overcast,350,2012-10-28 09:55:00
6:15 AM,42.8,32.0,66,30.14,10.0,North,10.4,-,N/A,,Overcast,350,2012-10-28 10:15:00
6:35 AM,41.0,32.0,70,30.14,10.0,North,11.5,-,N/A,,Mostly Cloudy,350,2012-10-28 10:35:00
6:51 AM,39.2,32.0,75,30.14,10.0,North,10.4,-,N/A,,Scattered Clouds,350,2012-10-28 10:51:00
7:11 AM,39.2,32.0,75,30.13,10.0,NNW,9.2,-,N/A,,Clear,340,2012-10-28 11:11:00
7:31 AM,39.2,33.8,81,30.13,10.0,North,11.5,-,N/A,,Clear,350,2012-10-28 11:31:00
7:51 AM,39.2,33.8,81,30.14,10.0,North,8.1,-,N/A,,Clear,350,2012-10-28 11:51:00
8:11 AM,39.2,33.8,81,30.16,10.0,NNW,6.9,-,N/A,,Scattered Clouds,340,2012-10-28 12:11:00
8:31 AM,39.2,33.8,81,30.16,10.0,NNW,9.2,-,N/A,,Mostly Cloudy,340,2012-10-28 12:31:00
8:51 AM,41.0,33.8,76,30.16,10.0,North,10.4,-,N/A,,Overcast,360,2012-10-28 12:51:00
9:11 AM,42.8,35.6,76,30.16,10.0,North,12.7,-,N/A,,Overcast,350,2012-10-28 13:11:00
9:31 AM,42.8,35.6,76,30.16,10.0,North,12.7,19.6,N/A,,Mostly Cloudy,360,2012-10-28 13:31:00
9:51 AM,44.6,35.6,71,30.15,10.0,North,15.0,18.4,N/A,,Scattered Clouds,360,2012-10-28 13:51:00
10:12 AM,44.6,35.6,71,30.15,10.0,North,17.3,23.0,N/A,,Scattered Clouds,10,2012-10-28 14:12:00
10:32 AM,44.6,35.6,71,30.15,10.0,NNE,12.7,24.2,N/A,,Overcast,20,2012-10-28 14:32:00
10:52 AM,46.4,37.4,71,30.14,10.0,North,10.4,18.4,N/A,,Overcast,10,2012-10-28 14:52:00
11:12 AM,48.2,37.4,66,30.14,10.0,NNE,10.4,17.3,N/A,,Mostly Cloudy,30,2012-10-28 15:12:00
11:32 AM,48.2,35.6,62,30.13,10.0,NNE,15.0,23.0,N/A,,Mostly Cloudy,30,2012-10-28 15:32:00
11:52 AM,48.2,35.6,62,30.12,10.0,NNE,11.5,25.3,N/A,,Scattered Clouds,20,2012-10-28 15:52:00
12:12 PM,48.2,33.8,58,30.11,10.0,NNE,12.7,24.2,N/A,,Scattered Clouds,30,2012-10-28 16:12:00
12:32 PM,48.2,33.8,58,30.11,10.0,NNE,17.3,27.6,N/A,,Scattered Clouds,20,2012-10-28 16:32:00
1:12 PM,51.8,32.0,47,30.10,10.0,NNE,18.4,35.7,N/A,,Clear,20,2012-10-28 17:12:00
1:33 PM,50.0,30.2,47,30.09,10.0,NE,18.4,29.9,N/A,,Clear,40,2012-10-28 17:33:00
1:53 PM,48.2,30.2,50,30.09,10.0,NNE,16.1,23.0,N/A,,Scattered Clouds,20,2012-10-28 17:53:00
2:13 PM,48.2,30.2,50,30.10,10.0,NNE,15.0,24.2,N/A,,Scattered Clouds,30,2012-10-28 18:13:00
2:33 PM,48.2,30.2,50,30.09,10.0,NNE,15.0,24.2,N/A,,Clear,30,2012-10-28 18:33:00
2:53 PM,48.2,30.2,50,30.08,10.0,North,11.5,25.3,N/A,,Clear,10,2012-10-28 18:53:00
3:13 PM,46.4,30.2,53,30.08,10.0,NNE,12.7,24.2,N/A,,Clear,20,2012-10-28 19:13:00
3:33 PM,46.4,30.2,53,30.08,10.0,NNE,15.0,21.9,N/A,,Clear,20,2012-10-28 19:33:00
3:53 PM,46.4,30.2,53,30.09,10.0,NNE,16.1,26.5,N/A,,Clear,20,2012-10-28 19:53:00
4:13 PM,46.4,30.2,53,30.09,10.0,NNE,12.7,24.2,N/A,,Clear,30,2012-10-28 20:13:00
4:34 PM,46.4,30.2,53,30.08,10.0,North,19.6,26.5,N/A,,Clear,10,2012-10-28 20:34:00
4:54 PM,46.4,30.2,53,30.08,10.0,North,18.4,28.8,N/A,,Scattered Clouds,10,2012-10-28 20:54:00
5:14 PM,46.4,30.2,53,30.09,10.0,North,17.3,26.5,N/A,,Mostly Cloudy,360,2012-10-28 21:14:00
5:34 PM,46.4,30.2,53,30.09,10.0,North,16.1,32.2,N/A,,Overcast,10,2012-10-28 21:34:00
5:54 PM,46.4,28.4,50,30.09,10.0,North,19.6,32.2,N/A,,Mostly Cloudy,360,2012-10-28 21:54:00
6:14 PM,46.4,28.4,50,30.09,10.0,North,16.1,28.8,N/A,,Scattered Clouds,10,2012-10-28 22:14:00
6:34 PM,46.4,30.2,53,30.09,10.0,North,18.4,25.3,N/A,,Mostly Cloudy,10,2012-10-28 22:34:00
6:54 PM,44.6,30.2,57,30.09,10.0,North,19.6,28.8,N/A,,Mostly Cloudy,360,2012-10-28 22:54:00
7:14 PM,44.6,30.2,57,30.10,10.0,North,17.3,27.6,N/A,,Overcast,10,2012-10-28 23:14:00
7:34 PM,44.6,30.2,57,30.09,10.0,North,15.0,25.3,N/A,,Overcast,360,2012-10-28 23:34:00
7:54 PM,44.6,30.2,57,30.10,10.0,North,16.1,25.3,N/A,,Overcast,360,2012-10-28 23:54:00
8:15 PM,44.6,30.2,57,30.10,10.0,North,15.0,24.2,N/A,,Overcast,360,2012-10-29 00:15:00
8:35 PM,44.6,30.2,57,30.09,10.0,North,18.4,25.3,N/A,,Overcast,360,2012-10-29 00:35:00
8:55 PM,44.6,30.2,57,30.09,10.0,North,18.4,25.3,N/A,,Overcast,360,2012-10-29 00:55:00
9:15 PM,44.6,30.2,57,30.09,10.0,North,16.1,27.6,N/A,,Overcast,360,2012-10-29 01:15:00
9:35 PM,44.6,30.2,57,30.09,10.0,North,17.3,26.5,N/A,,Overcast,350,2012-10-29 01:35:00
9:55 PM,44.6,28.4,53,30.09,10.0,North,19.6,24.2,N/A,,Overcast,360,2012-10-29 01:55:00
10:15 PM,44.6,30.2,57,30.08,10.0,North,18.4,24.2,N/A,,Overcast,360,2012-10-29 02:15:00
10:35 PM,44.6,30.2,57,30.08,10.0,North,17.3,24.2,N/A,,Overcast,10,2012-10-29 02:35:00
10:55 PM,44.6,32.0,61,30.09,10.0,NNE,17.3,23.0,N/A,,Light Drizzle,20,2012-10-29 02:55:00
11:11 PM,42.8,32.0,66,30.09,10.0,NNE,15.0,27.6,N/A,,Light Drizzle,20,2012-10-29 03:11:00
11:31 PM,42.8,33.8,70,30.09,10.0,North,17.3,23.0,N/A,,Light Drizzle,10,2012-10-29 03:31:00
11:51 PM,42.8,33.8,70,30.08,10.0,North,16.1,25.3,N/A,Rain,Light Rain,10,2012-10-29 03:51:00